Preview of NWS' New Version of Forecast
This preview is not operational and should not be used for support decisions.
Latest weather observations around

Kansas City, Kansas City Downtown Airport (KMKC)

Using English Units (Switch to International System of Units)
Date/ Time (CDT) Wind (mph) Vis. (mi) Weather Sky Cond. Temp (°F) Rel. Humidity Wind Chill (°F) Heat Index (°F) Pressure Precip. (in)
Air Dwpt 6 hour Altimeter (inHg) Sea level (inHg) 1 hr 3 hr 6 hr
Max Min
Oct 15 07:54 NW 5 10 Clear CLR 33 29     85% 29   30.36 30.38      
Oct 15 06:54 NW 7 10 Clear CLR 34 29     82% 28   30.35 30.36     0
Oct 15 05:54 NW 8 10 Clear CLR 35 30     82% 29   30.33 30.34      
Oct 15 04:54 NW 6 10 Cloudy OVC075 36 31     82% 31   30.31 30.32      
Oct 15 03:54 NW 9 10 Cloudy OVC065 36 31     82% 29   30.3 30.32   0  
Oct 15 03:03 NNW 8 10 Cloudy SCT015 OVC065 36 32     85% 30   30.31        
Oct 15 02:54 NNW 11 10 Cloudy BKN015 OVC065 36 32     85% 28   30.31 30.32      
Oct 15 02:05 NNW 11 10 Cloudy OVC015 36 32     85% 28   30.3        
Oct 15 01:54 NNW 10 9 Cloudy BKN013 OVC018 35 32     88% 27   30.3 30.3 0    
Oct 15 01:37 NNW 11 9 Light Snow FEW009 OVC015 35 32     88% 27   30.3   0    
Oct 15 00:54 NNW 11 10 Cloudy OVC014 36 31     82% 28   30.3 30.3 0   0
Oct 14 23:54 NNW 8 10 Clear   35 32     88% 29   30.28 30.28 0    
Oct 14 22:54 NNW 13 6 Light Snow and Fog/Mist OVC012 36 32     85% 27   30.26 30.27 0    
Oct 14 22:31 NNW 9 5 Unknown Precipitation and Fog/Mist BKN011 BKN016 OVC023 37 33     85% 30   30.25   0    
Oct 14 22:05   4 Unknown Precipitation and Fog/Mist FEW010 BKN015 OVC024 37 33     85%     30.22   0    
Oct 14 21:54 N 15 5 Light Snow and Fog/Mist BKN013 OVC020 37 33     85% 28   30.22 30.23 0 0  
Oct 14 21:21 NNW 13 10 Cloudy OVC015 38 33     82% 30   30.19        
Oct 14 20:54 NNW 11 10 Cloudy OVC014 38 34     85% 30   30.17 30.18 0    
Oct 14 20:01 NNW 14 10 Light Rain OVC012 38 34     85% 30   30.17   0    
Oct 14 19:54 NNW 11 10 Light Rain BKN008 OVC017 39 34     82% 32   30.16 30.16 0    
Oct 14 18:54 NNW 16 7 Light Rain OVC008 40 37     89% 31   30.12 30.13 0   0
Oct 14 17:54 NNW 13 9 Cloudy OVC008 41 37     86% 34   30.1 30.1 0    
Oct 14 16:54 NNW 9 3 Rain and Fog/Mist OVC008 40 37     89% 34   30.07 30.07 0    
Oct 14 16:01 NNW 17 5 Rain and Fog/Mist BKN011 BKN035 OVC075 41 37     86% 32   30.03   0    
Oct 14 15:54 NNW 16 1.5 Rain and Fog/Mist BKN011 BKN045 OVC075 41 37     86% 33   30.04 30.04 0 0  
Oct 14 15:29 NNW 16 1.5 Heavy Rain and Fog/Mist BKN011 BKN017 OVC026 42 38     85% 34   30.05   0    
Oct 14 14:54 NW 17 1.5 Light Rain and Fog/Mist BKN009 OVC015 44 41     89% 36   30.02 30.03 0    
Oct 14 14:30 NNW 18 1.5 Light Rain and Fog/Mist BKN009 BKN019 OVC030 46 42     86% 39   30   0    
Oct 14 13:54 NNW 8 10 Cloudy SCT015 OVC022 53 47     80%     29.98 29.98 0    
Oct 14 12:54 N 6 10 Cloudy BKN015 OVC020 53 47     80%     29.99 29.99      
Oct 14 12:08 NNE 7 10 Cloudy BKN008 BKN013 OVC022 53 48     83%     29.98        
Oct 14 12:01 NNE 7 10 Cloudy SCT008 BKN015 OVC022 52 47     83%     29.98        
Oct 14 11:54 NE 5 10 Cloudy BKN008 OVC022 52 47     83%     29.99 29.98      
Oct 14 10:54 NNE 5 10 Cloudy OVC006 51 47     86%     29.99 29.99      
Oct 14 09:54 NNE 6 10 Cloudy OVC005 50 46     86%     29.98 29.98      
Oct 14 08:54 NNE 5 10 Cloudy OVC005 50 46     86%     29.96 29.96      
Oct 14 07:54 ENE 6 10 Cloudy OVC005 50 46     86%     29.95 29.95      
Oct 14 06:54 E 6 10 Cloudy OVC005 50 46     86%     29.93 29.93      
Oct 14 05:54 E 5 10 Cloudy OVC007 51 46     83%     29.92 29.92      
Oct 14 04:54 E 6 10 Cloudy OVC008 51 46     83%     29.91 29.91      
Oct 14 03:54 ENE 6 10 Cloudy OVC008 50 46     86%     29.91 29.91      
Oct 14 03:25 NE 5 10 Cloudy OVC009 50 46     86%     29.91        
Oct 14 02:54 3 10 Cloudy OVC010 50 46     86%     29.91 29.91      
Oct 14 01:54 Calm 10 Cloudy BKN012 OVC038 50 46     86%     29.92 29.91      
Oct 14 01:16 ESE 7 10 Cloudy FEW011 OVC041 50 46     86%     29.9        
Oct 14 00:54 E 5 10 Cloudy BKN011 OVC018 51 46     83%     29.91 29.91      
Oct 14 00:50 E 6 10 Cloudy BKN011 OVC018 52 46     82%     29.91        
Oct 14 00:20 ESE 3 10 Mostly Cloudy BKN016 50 46     86%     29.92        
Oct 13 23:54 ESE 3 10 Clear CLR 50 45     83%     29.91 29.91      
Oct 13 22:54 ESE 3 10 Mostly Clear FEW012 50 45     83%     29.91 29.91      
Oct 13 21:54 ESE 5 10 Mostly Clear FEW016 51 44     77%     29.91 29.91      
Oct 13 20:54 SE 5 10 Clear CLR 51 42     71%     29.91 29.91      
Oct 13 19:54 SE 6 10 Clear CLR 52 42     69%     29.9 29.9      
Oct 13 18:54 SE 6 10 Partly Cloudy SCT030 53 42     66%     29.89 29.88      
Oct 13 17:54 SE 8 10 Clear CLR 56 41     57%     29.88 29.88      
Oct 13 16:54 SE 10 10 Mostly Clear FEW031 57 42     57%     29.88 29.87      
Oct 13 15:54 SSE 9 10 Mostly Clear FEW031 56 42     60%     29.9 29.9      
Oct 13 14:54 SE 6 10 Partly Cloudy SCT030 56 43     62%     29.92 29.92      
Oct 13 13:54 SSE 6 10 Mostly Cloudy BKN029 56 43     62%     29.94 29.94      
Oct 13 12:54 S 6 10 Cloudy OVC023 54 44     69%     29.95 29.95      
Oct 13 11:54 SSE 8 10 Cloudy OVC020 52 43     71%     29.99 29.99      
Oct 13 10:54 S 8 10 Cloudy BKN020 OVC025 51 44     77%     29.99 29.99      
Oct 13 09:54 SSW 6 10 Cloudy OVC021 51 43     74%     30 30      
Oct 13 08:54 S 5 10 Cloudy OVC017 49 43     80% 47   29.99 29.99      
Oct 13 07:54 SSE 6 10 Mostly Cloudy BKN023 48 42     80% 45   29.99 29.99      
Oct 13 06:54 SSW 3 10 Mostly Cloudy BKN023 BKN027 46 43     89% 45   29.98 29.98      
Oct 13 05:36 S 3 10 Mostly Cloudy BKN010 BKN023 48 44     86% 47   29.99        
Oct 13 04:54 SSE 3 10 Cloudy FEW009 SCT013 OVC018 48 45     89% 47   30 30      
Oct 13 04:29 ESE 5 10 Cloudy FEW009 OVC016 48 44     86% 46   29.99        
Oct 13 02:31 SE 5 10 Mostly Cloudy FEW006 BKN016 BKN022 47 44     90% 45   30        
Oct 13 00:54 SE 3 10 Cloudy BKN007 OVC011 48 44     86% 47   30 30     0
Oct 13 00:47 ESE 3 9 Cloudy BKN007 OVC011 48 44     86% 47   30        
Oct 12 23:38 ESE 7 9 Cloudy OVC010 47 44     90% 44   30        
Oct 12 19:12 ENE 7 6 Fog/Mist FEW005 OVC009 47 43     86% 44   29.98        
Oct 12 18:54 ENE 3 6 Fog/Mist OVC009 47 43     86% 46   29.98 29.98     0
Oct 12 18:17 E 3 5 Haze OVC008 48 43     83% 47   29.96        
Oct 12 17:54 ENE 6 10 Cloudy OVC011 48 43     83% 45   29.96 29.96      
Oct 12 15:54 N 5 10 Cloudy OVC011 48 43     83% 46   29.97 29.97   0  
Oct 12 07:54 ESE 5 5 Light Rain and Fog/Mist FEW014 OVC043 45 41     86% 43   30.07 30.07 0    
Oct 12 06:54 SE 5 10 Cloudy FEW014 OVC048 46 40     79% 44   30.08 30.09 0   0
Oct 11 22:54 E 3 10 Clear   50 36     58%     30.12 30.13      
Oct 11 20:54 Calm 10 Mostly Clear FEW120 50 39     66%     30.12 30.12      
Oct 11 12:54 W 9 10 Mostly Cloudy BKN027 57        %     30.2 30.19      
Notice The following observation data may not be complete
Oct 11 11:30 WNW 10 10 Cloudy OVC022          %     30.21        
Oct 11 11:03 N 9 10 Cloudy OVC022 45        % 40   30.21        
Oct 11 01:54 WNW 11 10 Cloudy OVC032 46 34     63% 41   30.09 30.09      
Oct 10 19:18 WNW 11 10 Cloudy OVC029 51 40     65%     29.94        
Notice The following observation data may not be complete
Oct 10 18:31   10 Cloudy OVC030          %              
Oct 10 17:54 W 11 10 Cloudy OVC027 52 41     66%     29.92 29.92      
Oct 10 17:46 W 10 10 Cloudy OVC029 52 41     66%     29.92        
Oct 10 15:54 W 13 10 Cloudy OVC032 54 42     64%     29.88 29.88      
Oct 10 14:54   10 Cloudy OVC032 55 42     62%     29.87 29.85      
Oct 10 13:38 WSW 15 10 Cloudy OVC030 55 43     64%     29.86        
Oct 10 13:05 W 14 10 Cloudy OVC028 54 43     66%     29.85        
Oct 10 12:54 W 14 10 Cloudy OVC030 54 43     66%     29.85 29.84      
Oct 10 10:54 W 10 10 Cloudy OVC019 53 45     74%     29.82 29.8      
Oct 10 07:54 W 11 10 Cloudy BKN014 OVC035 52 47     83%     29.76 29.75      
Oct 10 06:28 W 10 10 Cloudy FEW011 BKN030 OVC038 53 49     86%     29.74   0    
Oct 10 06:21 WSW 11 10 Cloudy FEW008 BKN028 OVC033 54 49     83%     29.74        
Oct 10 06:12 WSW 11 10 Cloudy SCT008 BKN012 OVC028 54 50     86%     29.73        
Oct 10 06:01 W 11 9 Cloudy BKN008 OVC014 54 51     90%     29.73        
Oct 10 05:18 W 8 6 Fog/Mist BKN008 OVC013 56 52     87%     29.72        
Oct 10 00:54 S 7 10 Cloudy OVC015 66 62     87%     29.69 29.67     0
Oct 09 21:54 S 8 10 Clear CLR 67 62     84%     29.68 29.66 0 0  
Oct 09 19:54 S 8 10 Mostly Cloudy BKN110 69 62     78%     29.69 29.67      
Oct 09 16:54 S 6 10 Cloudy SCT014 BKN020 OVC043 74 68     82%   75 29.66 29.64 0    
Oct 09 16:44 S 7 10 Light Rain FEW018 BKN026 OVC046 73 68     84%   74 29.67   0    
Notice The following observation data may not be complete
Oct 09 15:32   9 Light Rain SCT020 BKN035 OVC095          %         1    
Oct 09 14:57 SE 10 1.75 Heavy Rain FEW014 BKN049 OVC085 74 68     82%   75 29.69   0    
Oct 09 14:54 SSE 10 3 Rain FEW016 BKN049 OVC085 74 68     82%   75 29.69 29.67 0    
Oct 09 13:01 E 7 10 Cloudy FEW012 BKN025 OVC034 73 68     84%   74 29.75        
Oct 09 09:27 ENE 5 2.5 Rain and Fog/Mist BKN003 BKN015 OVC021 68 65     90%     29.84   0    
Oct 09 06:43 E 5 6 Fog/Mist FEW004 BKN026 OVC095 66 64     93%     29.87   0    
Oct 09 06:27 E 7 4 Fog/Mist SCT029 BKN090 OVC110 66 64     93%     29.87   0    
Oct 09 06:17 E 5 6 Fog/Mist BKN029 BKN036 OVC110 66 64     93%     29.87   0    
Oct 09 04:44 E 7 9 Cloudy BKN017 BKN080 OVC110 67 64     90%     29.88   0    
Notice The following observation data may not be complete
Oct 09 02:25   10 Thunderstorms FEW009 BKN018 OVC044          %              
Oct 09 02:18   10 Cloudy FEW007 BKN044 OVC085 70 65     84%     29.9        
Notice The following observation data may not be complete
Oct 09 00:27   10 Cloudy FEW035 BKN065 OVC110          %         0    
Oct 09 00:02 SSE 5 10 Thunderstorms FEW045 SCT060 BKN100 70 65     84%     29.92        
Oct 08 16:10 S 10 10 Mostly Cloudy FEW021 SCT046 BKN060 78 69     74%   79 29.85   0    
Oct 08 16:08 S 10 4 Light Rain FEW023 BKN046 BKN060 78 69     74%   79 29.85   0    
Oct 08 15:59 SE 17 1.75 Heavy Rain FEW034 BKN046 BKN060 77 67     71%   78 29.85   0    
Oct 08 12:54 SE 6 10 Cloudy OVC041 74 67     79%   75 29.92 29.9     1
Oct 08 10:11 ESE 5 10 Mostly Cloudy FEW007 BKN034 BKN044 69 64     84%     29.95        
Oct 08 09:06 Calm 4 Rain and Fog/Mist SCT040 BKN050 OVC095 66 64     93%     29.95   0    
Oct 08 06:54 N 3 3 Light Rain and Fog/Mist BKN044 BKN055 OVC070 66 64     93%     29.91 29.89 0   2
Oct 08 06:46 Calm 2 Rain and Fog/Mist FEW021 BKN039 OVC070 66 64     93%     29.91   0    
Oct 08 06:22 WNW 9 3 Rain and Fog/Mist FEW004 BKN020 OVC046 67 64     90%     29.92   0    
Oct 08 04:54 Calm 8 Light Rain FEW026 BKN090 OVC110 67 64     90%     29.92 29.9 0    
Oct 08 04:19 SE 7 5 Rain and Fog/Mist FEW028 BKN042 OVC090 67 64     90%     29.92   0    
Oct 08 04:05 ESE 6 3 Rain and Fog/Mist BKN036 OVC070 67 64     90%     29.92   0    
Oct 08 03:54 Calm 1.25 Heavy Rain and Fog/Mist OVC030 67 65     93%     29.93 29.91 1 1  
Oct 08 03:52 Calm 1.5 Heavy Rain and Fog/Mist OVC030 66 64     94%     29.93   1    
Notice The following observation data may not be complete
Oct 08 03:36   2 Heavy Rain and Fog/Mist BKN040 OVC060          %         0    
Notice The following observation data may not be complete
Oct 08 00:24   1 Thunderstorms and Heavy Rain and Fog/Mist FEW004 OVC015          %         1    
Oct 08 00:17 W 7 0.75 Thunderstorms and Heavy Rain and Fog/Mist FEW005 SCT010 OVC015 68 65     90%     29.94   1    
Oct 07 23:40 ENE 7 10 Cloudy FEW004 BKN010 OVC016 67 64     90%     29.91   0    
Oct 07 23:26 ENE 5 10 Cloudy FEW005 BKN016 OVC020 67 65     93%     29.91   0    
Notice The following observation data may not be complete
Oct 07 21:02   10 Light Rain FEW004 SCT041 OVC060          %         0    
Oct 07 20:54 E 6 2.5 Rain and Fog/Mist FEW003 BKN038 OVC065 67 64     90%     29.96 29.95 0    
Oct 07 20:51 ENE 3 2 Heavy Rain and Fog/Mist FEW003 BKN038 OVC065 66 64     94%     29.96   0    
Oct 07 19:54 E 3 10 Cloudy SCT003 OVC055 67 64     90%     29.97 29.96      
Oct 07 17:23 Calm 1.75 Heavy Rain and Fog/Mist BKN008 OVC022 66 63     90%     29.97   0    
Oct 07 15:22 NE 6 10 Cloudy SCT007 OVC035 67 62     84%     29.97        
Oct 07 14:54 E 6 10 Cloudy OVC007 66 61     84%     29.99 29.98      
Oct 07 13:54 NE 6 10 Clear   64 60     87%     29.99 29.98 0    
Oct 07 09:54 ENE 6 7 Light Rain BKN019 BKN027 OVC047 57 55     93%     30.06 30.06 0 0  
Oct 07 09:51 NNE 5 8 Light Rain BKN021 BKN027 OVC045 57 55     94%     30.06   0    
Oct 07 09:32 NNE 5 2.5 Rain and Fog/Mist BKN006 OVC027 57 54     89%     30.06   0    
Oct 07 09:15 WNW 5 1.75 Heavy Rain and Fog/Mist BKN006 OVC029 56 54     93%     30.07   0    
Oct 07 09:08 Calm 3 Rain and Fog/Mist BKN006 OVC029 56 54     93%     30.07   0    
Oct 07 09:07 3 3 Rain and Fog/Mist SCT006 OVC029 56 54     93%     30.07   0    
Oct 07 09:03 E 7 3 Thunderstorms and Rain and Fog/Mist BKN006 OVC029 56 54     93%     30.05   0    
Notice The following observation data may not be complete
Oct 07 06:12   10 Light Rain BKN005 BKN038 OVC090          %         0    
Oct 07 06:01 NNW 8 6 Light Rain and Fog/Mist SCT006 BKN036 OVC085 55 52     89%     30.03   0    
Oct 07 04:21 ENE 3 7 Light Rain BKN007 BKN025 OVC100 54 52     93%     30.05   0    
Notice The following observation data may not be complete
Oct 07 03:44   5 Thunderstorms and Rain and Fog/Mist BKN006 OVC010          %         0    
Oct 06 22:26 N 6 10 Light Rain BKN009 OVC029 54 51     90%     30.07   0    
Oct 06 22:17 NE 6 8 Light Rain SCT007 BKN011 OVC029 54 51     90%     30.08   0    
Oct 06 22:09 NNE 8 5 Rain and Fog/Mist BKN008 OVC029 54 51     90%     30.07   0    
Notice The following observation data may not be complete
Oct 06 21:43   5 Thunderstorms and Rain and Fog/Mist OVC011          %         0    
Oct 06 19:01 NNE 13 10 Light Rain OVC010 54 51     90%     30.02   0    
Oct 06 16:54 NNW 8 10 Cloudy OVC007 56 52     87%     30.05 30.04      
Oct 06 13:54 NNW 11 10 Cloudy OVC006 56 52     87%     30.04 30.03      
Oct 06 11:54 NNW 10 3 Fog/Mist OVC005 56 53     90%     30.04 30.03 0    
Oct 06 11:50 NNW 13 3 Fog/Mist OVC005 55 54     94%     30.05   0    
Oct 06 08:04 N 9 2.5 Heavy Rain and Fog/Mist BKN007 BKN011 OVC020 59 56     90%     30   0    
Notice The following observation data may not be complete
Oct 06 08:01   3 Heavy Rain and Fog/Mist SCT009 OVC020          %         0    
Oct 06 06:07 NNW 7 3 Rain and Fog/Mist BKN009 OVC013 61 58     90%     29.96   0    
Oct 06 05:04 N 10 10 Light Rain BKN011 OVC022 64 59     84%     29.91   0    
Oct 06 04:54 N 13 9 Light Rain SCT011 OVC022 64 59     84%     29.9 29.88 0    
Oct 06 04:15 ENE 8 10 Cloudy SCT009 OVC025 65 60     84%     29.89        
Oct 06 03:54 NNE 9 10 Cloudy BKN008 OVC035 65 60     84%     29.89 29.87      
Notice The following observation data may not be complete
Oct 06 03:31   10 Cloudy SCT008 BKN039 OVC050          %              
Oct 05 23:54 S 8 10 Mostly Clear FEW080 76 67     74%   77 29.84 29.83      
Oct 05 22:54 S 9 10 Clear CLR 77 67     71%   78 29.85 29.83      
Oct 05 18:54 S 11 10 Clear CLR 82 66     58%   84 29.8 29.78      
Oct 05 15:54 Calm 10 Mostly Cloudy BKN060 77 66     69%   78 29.84 29.82      
Oct 05 12:54 Calm 10 Cloudy OVC011 64 60     87%     29.93 29.92     0
Oct 05 11:54 Calm 10 Cloudy FEW006 BKN014 OVC110 62 59     90%     29.94 29.93 0    
Oct 05 08:37 Calm 8 Cloudy OVC022 58 53     84%     29.98   0    
Oct 05 07:54 Calm 8 Cloudy BKN009 BKN014 OVC019 57 52     83%     29.97 29.97      
Oct 05 06:54 NW 3 10 Cloudy OVC009 57 52     83%     29.97 29.97      
Oct 05 05:54 3 10 Cloudy OVC009 57 51     81%     29.96 29.96      
Oct 05 05:21 SSW 5 10 Cloudy OVC009 56 51     84%     29.96        
Oct 05 04:54 Calm 10 Cloudy OVC010 56 51     84%     29.96 29.95      
Oct 05 03:54 W 3 10 Cloudy OVC011 56 51     84%     29.96 29.95      
Oct 05 02:54 WSW 5 10 Cloudy OVC010 56 51     84%     29.97 29.97      
Oct 05 01:54 SSW 3 10 Cloudy OVC011 56 50     80%     29.98 29.97      
Oct 05 00:54 SE 5 10 Cloudy OVC013 56 50     80%     29.98 29.97      
Oct 04 23:54 ESE 6 10 Cloudy OVC012 56 49     77%     30 30      
Oct 04 23:13 ESE 7 10 Cloudy OVC013 55 49     80%     30.02        
Oct 04 22:54 E 7 10 Cloudy OVC015 55 49     80%     30.02 30.01      
Oct 04 21:54 E 9 10 Cloudy BKN018 BKN023 OVC034 56 47     72%     30.04 30.03      
Oct 04 20:54 E 11 10 Cloudy OVC020 57 46     67%     30.04 30.04      
Oct 04 19:54 E 11 10 Cloudy OVC020 57 46     67%     30.04 30.04      
Oct 04 18:54 ENE 10 10 Cloudy OVC023 59 45     60%     30.06 30.05      
Oct 04 17:54 E 9 10 Cloudy OVC023 59 44     58%     30.07 30.06      
Oct 04 16:54 E 11 10 Cloudy OVC022 60 43     53%     30.08 30.07      
Oct 04 15:54 E 9 10 Cloudy OVC026 60 42     51%     30.1 30.09      
Oct 04 14:54 NE 10 10 Cloudy OVC024 60 41     49%     30.1 30.09      
Oct 04 13:54 NE 10 10 Cloudy OVC024 59 41     51%     30.12 30.11      
Oct 04 12:54 ENE 9 10 Cloudy OVC029 58 41     53%     30.17 30.15      
Oct 04 11:54 E 9 10 Cloudy OVC033 57 40     53%     30.19 30.18      
Oct 04 10:54 NNE 13 10 Clear CLR 55 40     57%     30.18 30.17      
Oct 04 09:54 NNE 14 10 Clear CLR 52 39     61%     30.18 30.16      
Oct 04 08:54 N 16 10 Clear CLR 53 42     66%     30.17 30.16      
Oct 04 07:54 N 11 10 Cloudy OVC038 55 45     69%     30.16 30.14      
Oct 04 06:54 N 11 10 Mostly Clear FEW037 56 47     72%     30.15 30.13     0
Oct 04 06:03 N 16 10 Partly Cloudy SCT023 57 48     72%     30.11        
Oct 04 05:54 NNE 14 10 Mostly Cloudy BKN024 58 49     72%     30.11 30.09      
Oct 04 05:45 N 14 10 Mostly Cloudy BKN024 59 50     72%     30.11        
Oct 04 04:54 NNE 11 10 Partly Cloudy SCT024 61 51     70%     30.06 30.04      
Oct 04 03:54 N 15 10 Clear CLR 64 54     70%     30.02 29.99 0 0  
Oct 04 02:54 N 13 10 Light Rain FEW065 FEW090 SCT100 66 56     70%     30.03 30 0    
Oct 04 01:54 N 10 10 Mostly Clear FEW060 69 57     65%     30.01 29.98      
Oct 04 00:54 N 7 10 Cloudy OVC048 69 61     75%     29.98 29.96 0   0
Oct 03 23:54 NNW 5 10 Cloudy OVC038 70 62     76%     29.93 29.91 0    
Oct 03 23:29 NNW 11 10 Cloudy OVC040 71 64     79%   72 29.91   0    
Oct 03 23:16 NNW 11 10 Light Rain BKN040 BKN070 77 64     64%   77 29.89   0    
Oct 03 23:08   10 Mostly Cloudy SCT041 SCT050 BKN070 83 66     57%   85 29.88        
Oct 03 22:54 SSW 17 10 Clear CLR 83 67     59%   86 29.84 29.81      
Oct 03 21:54 SSW 15 10 Clear CLR 84 67     57%   87 29.82 29.8      
Oct 03 20:54 S 11 10 Clear   84 67     57%   87 29.81 29.78      
Oct 03 19:54 SSW 16 10 Clear CLR 86 67     53%   89 29.78 29.75      
Oct 03 18:54 SSW 17 10 Clear CLR 87 67     51%   90 29.76 29.73      
Oct 03 17:54   10 Cloudy OVC060 89 66     47%   92 29.74 29.72      
Sep 25 09:42 SSW 11 10 Mostly Cloudy BKN012 73 67     81%   74 29.89        
May 15 11:54 WNW 6 10 Mostly Cloudy FEW027 SCT034 BKN075 76 62     62%   76 29.98 29.96      
May 14 19:54 ENE 8 10 Clear   81 66     61%   83 29.78 29.75      
May 14 17:54 SSW 5 10 Clear CLR 83 65     55%   85 29.81 29.78      
May 14 10:54 W 7 10 Mostly Clear FEW034 83 68     61%   86 29.91 29.88      
May 13 20:54 S 11 10 Clear CLR 85 66     53%   87 29.87 29.84      
May 13 02:54 S 9 10 Partly Cloudy SCT065 76 64     67%   76 29.91 29.88      
May 12 09:20 NNE 8 9 Light Rain FEW090 BKN110 72 64     76%   72 29.91   0    
May 12 03:54 S 11 10 Clear CLR 75 62     64%   75 29.81 29.78      
May 11 23:54 S 15 10 Clear CLR 79 60     52%   79 29.82 29.8      
Jun 12 04:54 S 9 10 Clear CLR 74 65     74%   74 29.89 29.86      
Jun 11 15:54   10 Clear CLR 92 69     47%   97 29.79 29.76      
Jun 11 13:54 S 17 10 Clear CLR 91 71     52%   98 29.81 29.78      
Jun 11 05:54   10 Clear CLR 73 65     76%   74 29.83 29.8      
Jun 10 19:54   10 Partly Cloudy SCT042 84 69     61%   88 29.74 29.72      
Jun 10 07:54 SSW 11 10 Clear CLR 73 63     71%   73 29.83 29.81      
Jun 10 06:54 S 9 10 Clear CLR 70 61     73%     29.83 29.81      
Jun 07 13:54 ENE 7 10 Clear CLR 81 47     30%   80 30.08 30.06